Home > Weather > Louisville > Past weeks

Flag for USA Past Weather in Louisville, Kentucky, USA — Yesterday and Last 2 Weeks

Now
69 °F

Passing clouds.


Feels Like: 69 °F
Forecast: 66 / 83 °F
Wind: 6 mph from South

Location: Standiford Field

Current Time: May 26, 2016 at 6:46:23 AM

Latest Report: May 26, 2016 at 5:56 AM


Visibility: 10 mi

Pressure: 30.05 "Hg

Humidity: 79%

Dew Point: 62 °F

Location of LouisvilleLocation

Past Weather in Louisville — Graph

°F

Louisville Temperature Yesterday

Maximum temperature yesterday: 83 °F (at 3:56 PM)
Minimum temperature yesterday: 68 °F (at 5:56 AM)
Average temperature yesterday: 74 °F

High & Low Weather Summary for the Past Weeks

 TemperatureHumidityPressure
High86 °F (May 11, 3:56 PM)93% (May 11, 5:56 AM)30.28 "Hg (May 11, 5:56 AM)
Low44 °F (May 16, 6:56 AM)23% (May 23, 2:56 PM)29.82 "Hg (May 14, 4:56 AM)
Average63 °F63%30.07 "Hg
* Reported May 11 5:56 AM — May 26 5:56 AM, Louisville, Weather by CustomWeather, © 2016

Note: Actual official high and low records may vary slightly from our data, if they occured in-between our weather recording intervals... More about our weather records

Advertising

Louisville Weather History for the Previous 24 Hours

Scroll right to see more
 ConditionsComfort  
Time TempWeatherWind HumidityBarometerVisibility
5:56 AM
Thu, May 26
69 °FPassing clouds.6 mph79%30.05 "Hg10 mi
4:56 AM70 °FPassing clouds.6 mph76%30.05 "Hg10 mi
3:56 AM70 °FMostly cloudy.8 mph76%30.05 "Hg10 mi
2:56 AM70 °FMostly cloudy.6 mph76%30.04 "Hg10 mi
1:56 AM70 °FMostly cloudy.7 mph76%30.05 "Hg10 mi
12:56 AM71 °FOvercast.7 mph71%30.05 "Hg10 mi
11:56 PM
Wed, May 25
72 °FOvercast.7 mph68%30.05 "Hg10 mi
10:56 PM72 °FOvercast.9 mph68%30.05 "Hg10 mi
9:56 PM73 °FPartly cloudy.12 mph66%30.05 "Hg10 mi
8:56 PM75 °FBroken clouds.10 mph64%30.04 "Hg10 mi
7:56 PM77 °FBroken clouds.15 mph58%30.04 "Hg10 mi
6:56 PM78 °FCloudy.12 mph58%30.03 "Hg10 mi
5:56 PM81 °FMostly cloudy.17 mph54%30.04 "Hg10 mi
4:56 PM82 °FMostly cloudy.12 mph53%30.04 "Hg10 mi
3:56 PM83 °FCloudy.10 mph53%30.06 "Hg10 mi
2:56 PM81 °FCloudy.9 mph54%30.08 "Hg9 mi
1:56 PM81 °FMostly cloudy.12 mph54%30.09 "Hg9 mi
12:56 PM80 °FPartly sunny.14 mph51%30.10 "Hg10 mi
11:56 AM77 °FPartly sunny.5 mph58%30.10 "Hg9 mi
10:56 AM72 °FMostly cloudy.8 mph64%30.09 "Hg8 mi
9:56 AM71 °FCloudy.7 mph63%30.10 "Hg8 mi
8:56 AM69 °FLight rain. Mostly cloudy.7 mph68%30.09 "Hg9 mi
7:56 AM68 °FLight rain. More clouds than sun.7 mph73%30.09 "Hg7 mi
6:56 AM68 °FMostly cloudy.6 mph65%30.07 "Hg8 mi
Weather by CustomWeather, © 2016

See weather overviewHow to use our weather pages